Location: Sungai Jaoh
(2.9167°N, 113.9167°E)
Time: 05:53:48
(UTC+00:00)

Centaur AC-72 - Pass Details

Date: 30 November 2020
Orbit: 1131 x 35224 km, 19.0° (Epoch: 25 January)

Event Time Altitude Azimuth Distance (km) Brightness Sun altitude
Rises 12:20:28 0° 291° (WNW) 8,917 8.0 -30.5°
Reaches altitude 10° 12:28:31 10° 296° (WNW) 5,662 6.8 -32.4°
Enters shadow 12:38:12 48° 340° (NNW) 1,755 3.6 -34.6°
